Edwards AFB North Base, CA

1:37 PM PDT on July 25, 2017 (GMT -0700)
Edwards AFB North Base

Weather History for K9L2 - January, 2014

Change the Weather History Date:

Friday, January 24, 2014

  Actual Average (KEDW) Record (KEDW)
Temperature  
Mean Temperature 50 °F -  
Max Temperature 64 °F 58 °F 69 °F (2003)
Min Temperature 37 °F 31 °F 19 °F (2002)
Degree Days  
Heating Degree Days 14    
Moisture  
Dew Point 14 °F    
Average Humidity 24    
Maximum Humidity 35    
Minimum Humidity 14    
Precipitation  
Precipitation 0.00 in - - ()
Sea Level Pressure  
Sea Level Pressure 30.29 in    
Wind  
Wind Speed 5 mph (NE)    
Max Wind Speed 14 mph    
Max Gust Speed 17 mph    
Visibility 10 miles    
Events      
Averages and records for this station are not official NWS values.
T = Trace of Precipitation, MM = Missing Value Source: NWS Daily Summary

Daily Weather History Graph

Daily Weather History Graph

Search for Another Location

Airport or City:

Trip Planner

Search our weather history database for the weather conditions in past years. The results will help you decide how hot, cold, wet, or windy it might be!

Date:

Astronomy

Jan. 24, 2014 Rise Set
Actual Time 6:55 AM PST 5:12 PM PST
Civil Twilight 6:28 AM PST 5:39 PM PST
Nautical Twilight 5:57 AM PST 6:09 PM PST
Astronomical Twilight 5:27 AM PST 6:40 PM PST
Moon 12:30 AM PST (1/24) 11:31 AM PST (1/24)
Length of Visible Light 11h 10m
Length of Day
10h 16m
Last Quarter, 43% of the Moon is Illuminated
Jan 24
Last Quarter
Jan 30
New
Feb 6
First Quarter
Feb 14
Full
Feb 22
Last Quarter

Hourly Weather History & Observations

Time (PST) Temp. Windchill Dew Point Humidity Pressure Visibility Wind Dir Wind Speed Gust Speed Precip Events Conditions
12:55 AM 39.9 °F 35.8 °F 10.9 °F 31% 30.24 in 10.0 mi North 5.8 mph - N/A   Clear
1:55 AM 42.1 °F 37.7 °F 12.9 °F 31% 30.24 in 10.0 mi North 6.9 mph - N/A   Clear
2:55 AM 43.0 °F 40.3 °F 12.9 °F 30% 30.25 in 10.0 mi North 4.6 mph - N/A   Clear
3:55 AM 42.1 °F 40.2 °F 12.9 °F 31% 30.25 in 10.0 mi North 3.5 mph - N/A   Clear
4:55 AM 39.9 °F 37.8 °F 12.9 °F 33% 30.27 in 10.0 mi North 3.5 mph - N/A   Clear
5:55 AM 39.0 °F - 12.0 °F 33% 30.30 in 10.0 mi Calm Calm - N/A   Clear
6:55 AM 37.9 °F - 12.0 °F 35% 30.31 in 10.0 mi Calm Calm - N/A   Clear
7:55 AM 39.9 °F - 14.0 °F 35% 30.33 in 10.0 mi Calm Calm - N/A   Clear
8:55 AM 48.9 °F - 15.1 °F 26% 30.34 in 10.0 mi Calm Calm - N/A   Clear
10:55 AM 59.0 °F - 15.1 °F 18% 30.35 in 10.0 mi East 5.8 mph - N/A   Clear
11:55 AM 63.0 °F - 15.1 °F 16% 30.32 in 10.0 mi East 8.1 mph - N/A   Clear
12:55 PM 64.0 °F - 15.1 °F 15% 30.30 in 10.0 mi East 13.8 mph 17.3 mph N/A   Clear
1:55 PM 64.0 °F - 14.0 °F 14% 30.27 in 10.0 mi East 13.8 mph - N/A   Clear
2:55 PM 64.0 °F - 14.0 °F 14% 30.27 in 10.0 mi East 11.5 mph - N/A   Clear
3:55 PM 63.0 °F - 12.9 °F 14% 30.27 in 10.0 mi East 12.7 mph - N/A   Clear
4:55 PM 61.0 °F - 14.0 °F 16% 30.29 in 10.0 mi East 9.2 mph - N/A   Partly Cloudy
5:55 PM 57.9 °F - 14.0 °F 18% 30.30 in 10.0 mi ENE 4.6 mph - N/A   Partly Cloudy
6:55 PM 55.0 °F - 14.0 °F 20% 30.32 in 10.0 mi NE 4.6 mph - N/A   Mostly Cloudy
7:55 PM 55.0 °F - 15.1 °F 21% 30.32 in 10.0 mi ENE 4.6 mph - N/A   Mostly Cloudy
8:55 PM 48.9 °F - 14.0 °F 25% 30.32 in 10.0 mi Calm Calm - N/A   Clear
9:55 PM 48.0 °F - 14.0 °F 26% 30.32 in 10.0 mi North 3.5 mph - N/A   Clear
10:55 PM 48.9 °F - 14.0 °F 25% 30.31 in 10.0 mi Calm Calm - N/A   Clear
11:55 PM 48.0 °F - 12.9 °F 24% 30.29 in 10.0 mi North 4.6 mph - N/A   Partly Cloudy